www.pogodaiklimat.ru

Архив погоды в Гродно (Гродненская область, Беларусь)

Время
(UTC), дата
15 25.06
18 25.06
21 25.06
00 26.06
03 26.06
06 26.06
09 26.06
12 26.06
15 26.06
18 26.06
21 26.06
00 27.06
03 27.06
06 27.06
09 27.06
12 27.06
15 27.06
18 27.06
21 27.06
00 28.06
03 28.06
06 28.06
09 28.06
12 28.06
15 28.06
18 28.06
21 28.06
00 29.06
03 29.06
06 29.06
09 29.06
12 29.06
15 29.06
18 29.06
21 29.06
00 30.06
03 30.06
06 30.06
09 30.06
12 30.06
15 30.06
18 30.06
21 30.06
00 1.07
03 1.07
06 1.07
09 1.07
12 1.07
15 1.07
18 1.07
21 1.07
00 2.07
03 2.07
06 2.07
09 2.07
12 2.07
Ветер
(напр.,м/с)
Видим. Явления Облачность Т
(С)
Тd
(С)
f
(%)
Тe
(С)
Тes
(С)
Комфортность P
(гПа)
Po
(гПа)
Тmin
(С)
Tmax
(С)
R
(мм)
R24
(мм)
S
(см)
В 2 10 км 6 баллов +26.8 +13.9 45 +29 +29 жарко 1016.0 998.9
СВ 1 10 км 4 балла +25.8 +14.6 50 +28 +28 жарко 1016.0 998.8 +28.4
В 1 10 км ясно +21.9 +15.0 65 +25 +25 комфорт 1017.0 999.6
штиль 0 10 км ясно +18.8 +14.5 76 +20 +20 1018.0 1000.4
СВ 1 10 км ясно +18.6 +14.5 77 +20 +38 опасность
простуды
1019.0 1001.3 +18.2
СВ 1 10 км ясно +23.1 +16.4 66 +28 +28 душно 1020.0 1002.6 +18.2
СВ 2 10 км 3 балла +26.9 +14.9 48 +30 +30 душно 1020.0 1002.8
СВ 2 10 км 4 балла +28.4 +13.5 40 +30 +30 жарко 1019.0 1001.9
ЮВ 1 10 км 3 балла +28.7 +13.4 39 +30 +30 жарко 1019.0 1001.9
В 1 10 км ясно +27.0 +15.0 48 +30 +30 душно 1019.0 1001.8 +29.4
СВ 1 10 км ясно +23.5 +15.8 62 +27 +27 душно 1020.0 1002.6
СВ 1 10 км ясно +20.6 +15.6 73 +25 +25 комфорт 1021.0 1003.4
В 1 10 км 3 балла +19.5 +16.0 80 +23 +35 комфорт 1021.0 1003.4 +19.1
ЮЗ 1 10 км 4 балла +24.8 +17.3 63 +29 +29 душно 1021.0 1003.7 +19.1
В 2 10 км 4 балла +28.1 +15.7 47 +31 +31 душно 1021.0 1003.9
В 2 10 км 4 балла +29.5 +14.1 39 +31 +31 жарко 1020.0 1002.9
ЮВ 2 10 км 8 баллов +29.6 +13.8 38 +31 +31 жарко 1019.0 1002.0
В 1 10 км 6 баллов +27.6 +14.9 46 +30 +30 жарко 1019.0 1001.9 +29.9
СВ 1 10 км 4 балла +23.3 +17.1 68 +28 +28 душно 1020.0 1002.6
В 1 10 км 4 балла +21.1 +16.9 77 +25 +25 комфорт 1020.0 1002.5
В 1 10 км 6 баллов +19.9 +16.7 82 +24 +31 комфорт 1020.0 1002.4 +19.3
В 1 10 км 8 баллов +25.7 +17.6 61 +30 +30 душно 1019.0 1001.8 +19.3
ЮВ 2 10 км 8 баллов +29.4 +16.2 45 +33 +33 душно 1019.0 1002.0
Ю 3 10 км 8 баллов +29.7 +15.4 42 +32 +32 душно 1018.0 1001.0
ЮВ 2 10 км 6 баллов +31.1 +15.1 38 +33 +33 душно 1017.0 1000.1
ЮВ 1 10 км 8 баллов +29.4 +15.9 44 +32 +32 душно 1016.0 999.0 +31.5
В 2 10 км 8 баллов +24.2 +17.2 65 +28 +28 душно 1017.0 999.7
СЗ 1 10 км 8 баллов +22.4 +17.7 75 +27 +27 душно 1017.0 999.6
СВ 1 10 км 8 баллов +20.8 +17.4 81 +26 +29 душно 1017.0 999.5 +20.8
С 1 10 км 4 балла +25.0 +18.9 69 +30 +30 душно 1016.0 998.8 +20.6 1
СВ 1 10 км 8 баллов +27.8 +19.0 59 +33 +33 очень
душно
1016.0 998.9
СВ 1 10 км 4 балла +29.2 +19.2 55 +35 +35 очень
душно
1015.0 998.0
СЗ 1 10 км 4 балла +30.4 +18.5 49 +35 +35 очень
душно
1014.0 997.1
СВ 1 10 км 4 балла +25.5 +18.9 67 +30 +30 душно 1014.0 996.8 +31.3
С 1 10 км ясно +21.9 +18.5 81 +27 +27 душно 1016.0 998.6
штиль 0 10 км ясно +20.1 +18.4 90 +23 +23 комфорт 1015.0 997.5
СВ 1 10 км 3 балла +18.6 +17.4 93 +21 +33 комфорт 1016.0 998.4 +18.6
В 1 10 км 6 баллов +23.6 +19.1 76 +28 +29 душно 1016.0 998.7 +18.6
СВ 2 10 км 8 баллов +27.6 +18.9 59 +33 +33 очень
душно
1016.0 998.9
В 2 10 км 8 баллов +29.3 +18.7 53 +34 +34 очень
душно
1015.0 998.0
В 2 10 км 8 баллов +29.8 +19.5 54 +36 +36 очень
душно
1015.0 998.1
В 1 10 км 4 балла +28.0 +19.2 59 +34 +34 очень
душно
1015.0 998.0 +30.8
СВ 1 10 км 3 балла +24.9 +17.6 64 +29 +29 душно 1016.0 998.8
СВ 1 10 км 3 балла +23.0 +16.8 68 +28 +28 душно 1017.0 999.6
В 1 10 км 8 баллов +21.0 +17.0 78 +26 +29 душно 1017.0 999.5 +20.4
ЮВ 2 10 км 8 баллов +23.7 +17.4 68 +28 +28 душно 1018.0 1000.7 +20.4
ЮВ 3 10 км 6 баллов +27.6 +18.0 56 +32 +32 очень
душно
1017.0 999.9
В 2 10 км 6 баллов +29.9 +15.6 42 +33 +33 душно 1017.0 1000.0
Ю 2 10 км ясно +30.4 +15.3 40 +33 +33 душно 1016.0 999.1
В 2 10 км ясно +27.0 +14.4 46 +29 +29 жарко 1015.0 997.9 +30.9
В 2 10 км ясно +24.6 +12.8 48 +27 +27 жарко 1017.0 999.7
В 1 10 км ясно +20.5 +13.9 66 +24 +24 комфорт 1018.0 1000.5
В 2 10 км 8 баллов +19.0 +14.3 74 +21 +24 комфорт 1018.0 1000.4 +18.7
ЮВ 2 10 км 8 баллов +23.7 +14.1 55 +26 +26 жарко 1018.0 1000.6 +18.7
З 2 10 км 8 баллов +27.0 +16.6 53 +31 +31 душно 1018.0 1000.8
З 3 10 км 8 баллов +26.7 +18.0 59 +31 +31 душно 1019.0 1001.8
Местоположение метеостанции Гродно (Гродненская область, Беларусь): широта 53.65 долгота 23.84 высота над уровнем моря 150 м.
В архиве по умолчанию представлена погода в Гродно за последнюю неделю. Архивные данные за месяц целиком и за предыдущие месяцы, начиная с января 2011 года, Вы можете получить, выбрав интересующий диапазон дат из раскрывающегося списка и нажав кнопку "Найти!".
*Определитесь, кто Вы:
Внимание! Время в таблицах - всемирное. Для получения местного времени необходимо прибавить поправку, которая равна 3 ч.
Смотрите также архив погоды в соседних городах и на ближайших метеорологических станциях:
Партнеры нашего сайта:      
Пояснения к столбцам:
  • Ветер - указаны скорость ветра в м/с - средняя за 10 мин, порывы в срок и между сроками (в фигурных скобках) и направление, откуда дует ветер: С - северный,
  • СВ - северо-восточный, В - восточный, ЮВ - юго-восточный, Ю - южный, ЮЗ - юго-западный, З - западный, СЗ - северо-западный.
  • Видимость - горизонтальная дальность видимости в метрах или километрах. При видимости от 1 до 10 км при отсутствии осадков обычно наблюдается дымка, при ухудшении видимости до 1 км и менее - туман. В сухую погоду видимость может ухудшаться дымом, пылью или мглою.
  • Явления - указаны атмосферные явления, наблюдавшиеся в срок или в последний час перед сроком; фигурными скобками обозначены явления, наблюдавшиеся между сроками (за 1-3 часа до срока); квадратными скобками обозначены град или гололедные отложения с указанием их диаметра в мм.
  • Облачность - указаны через наклонную черту общая и нижняя облачность в баллах и высота нижней границы облаков в метрах; квадратными скобками обозначены формы облаков: Ci - перистые, Cs - перисто-слоистые, Cc - перисто-кучевые, Ac - высококучевые, As - высокослоистые, Sc - слоисто-кучевые, Ns - слоисто-дождевые, Cu - кучевые, Cb - кучево-дождевые. Подробнее классификацию облаков см. в Атласе облаков (PDF).
  • T - Температура воздуха - температура, измеренная на высоте 2 м над землей.
  • Td - Температура точки росы - температура, при понижении до которой содержащийся в воздухе водяной пар достигнет насыщения.
  • f - Относительная влажность воздуха - влажноcть воздуха, измеренная на высоте 2 м над землей.
  • Te - Эффективная температура - температура, которую ощущает одетый по сезону человек в тени. Характеристика душности погоды. При расчете учитывается влияние влажности воздуха и скорости ветра на теплоощущения человека.
  • Tes - Эффективная температура на солнце - температура, которую ощущает человек, с поправкой на солнечный нагрев. Характеристика знойности погоды. Зависит от высоты солнца над горизонтом, облачности и скорости ветра. Ночью, в пасмурную погоду, а также при ветре 12 м/с и более поправка равна нулю.
  • P - Атмосферное давление - приведенное к уровню моря атмосферное давление.
  • Po - Атмосферное давление - измеренное на уровне метеостанции атмосферное давление.
  • Tmin - Минимальная температура - минимум температуры воздуха на высоте 2 м над землей.
  • Tmax - Максимальная температура - максимум температуры воздуха на высоте 2 м над землей.
  • R - Количество осадков - Количество выпавших осадков за период времени, мм. При наведении курсора мыши на число - период времени, за который выпало указанное количество осадков.
  • R24 - Количество осадков - Количество выпавших осадков за 24 часа, мм.
  • S - Снежный покров - Высота снежного покрова, см. При наведении курсора мыши на число - состояние снежного покрова и степень покрытия местности в баллах.